Volver al catálogo

DELTA 1 DEB

ActivoPO
NORAD 21283·DEBRIS·🇺🇸 United States

Lanzado Jun 12, 1975 desde Vandenberg Space Force Base

Loading…

Próximos Pases (próximas 24 horas)

TLE

ActualizadoSource: Space-Track

Época: Sep 14, 2026, 11:40 UTC

1 21283U 75052U   26257.48622520 -.00000164  00000-0 -38013-3 0  9997
2 21283  99.7934 342.4117 0243096  61.6503 312.5227 12.97993543674355

Sigue DELTA 1 DEB en tiempo real con AllMySat

Download on the App Store